Regional Weather Roundup
Issued by NWS

Home | Current Version | Previous Version | Text Only | Print | Product List | Glossary On
Versions: 1 2 3 4 5 6 7 8 9 10 11 12 13 14 15 16 17 18 19 20 21 22 23 24 25 26 27 28 29 30 31 32 33 34 35 36 37 38 39 40 41 42 43 44 45 46 47 48 49 50
000
ASUS43 KLOT 230010
RWRIL

ILLINOIS REGIONAL WEATHER ROUNDUP
NATIONAL WEATHER SERVICE CHICAGO/ROMEOVILLE IL
700 PM CDT TUE JUL 22 2014

NOTE: "FAIR" INDICATES FEW OR NO CLOUDS BELOW 12,000 FEET WITH NO
SIGNIFICANT WEATHER AND/OR OBSTRUCTIONS TO VISIBILITY.

* THESE STATIONS ARE NOT UNDER NWS QUALITY CONTROL. THEY ALSO MAY NOT
  REPORT WEATHER SUCH AS PRECIPITATION OR FOG.

ILZ001-002-007-009-015-016-024-230100-
NORTHWEST ILLINOIS

CITY           SKY/WX    TMP DP  RH WIND       PRES   REMARKS
MOLINE         CLOUDY    85  77  77 SW7       29.97R HX  95
6HR MIN TEMP:  84; 6HR MAX TEMP:  90;

STERLING*      CLOUDY    84  79  84 W10       29.96R HX  96
SAVANNA*       PTSUNNY   88  76  67 W5        29.96R HX  99
$$

ILZ003-004-008-010-011-017-018-230100-
NORTH CENTRAL ILLINOIS

CITY           SKY/WX    TMP DP  RH WIND       PRES   REMARKS
ROCKFORD       CLOUDY    86  77  74 W6        29.96R HX  97
6HR MIN TEMP:  85; 6HR MAX TEMP:  90;

FREEPORT*      CLOUDY    84  78  81 W6        29.98R HX  95
ROCHELLE*      PTSUNNY   83  76  79 SW6       29.96S HX  90
DE KALB*       PTSUNNY   82  76  79 SW10      29.97S HX  90
PERU*          MOSUNNY   84  75  73 SW7       29.97S HX  92
$$

ILZ005-006-012>014-019>023-230100-
NORTHEAST ILLINOIS

CITY           SKY/WX    TMP DP  RH WIND       PRES   REMARKS
CHICAGO-OHARE  CLOUDY    87  72  60 SW15      29.94R HX  93
6HR MIN TEMP:  86; 6HR MAX TEMP:  90;

CHICAGO-MIDWAY PTSUNNY   88  75  65 SW14      29.94F HX  97
6HR MIN TEMP:  87; 6HR MAX TEMP:  91;

AURORA         CLOUDY    86  75  69 SW8       29.96R HX  95
6HR MIN TEMP:  86; 6HR MAX TEMP:  90;

LANSING*       MOSUNNY   84  72  66 SW13      29.96F HX  89
JOLIET*        MOSUNNY   85  72  65 SW8       29.97R HX  90
WAUKEGAN       CLOUDY    85  75  72 SW8       29.93R HX  93
6HR MIN TEMP:  85; 6HR MAX TEMP:  89;

DUPAGE AIRPORT CLOUDY    86  75  69 SW10      29.95R HX  95
6HR MIN TEMP:  86; 6HR MAX TEMP:  91;

KANKAKEE*      SUNNY     84  75  75 S8        29.97F HX  91
WHEELING       PTSUNNY   89  74  60 SW9       29.95R HX  98
6HR MIN TEMP:  88; 6HR MAX TEMP:  91;

MORRIS*        PTSUNNY   85  76  73 SW6       29.97R HX  94
ROMEOVILLE*    MOSUNNY   84  73  68 SW9       29.96R HX  91
NORTHERLY ISL    N/A     86  72  62 S16         N/A  HX  92
$$

LMZ740>746-230100-
SOUTHERN LAKE MICHIGAN

STATION/POSITION SKY/WX   TEMP    WIND        PRES    VSBY  WAVE
                          AIR SEA DIR/SP/G                  HT/PER
                          (F)     (DEG/KT/KT) (MB)    (MI)  (FT/S)
SOUTHERN BUOY              71 66  200/ 10/ 12 1013.2R         2/ 4
WAUKEGAN HARBOR            87     240/  9/ 15 1014.2S
HARRISON CRIB              84     200/ 15/ 19   N/A
BURNHAM HARBOR             86     190/  5/ 15   N/A
CALUMET HARBOR             85     210/ 12/ 15 1013.0F
BURNS HARBOR               84     220/ 13/ 21 1015.2S
MICHIGAN CITY              83     190/ 12/ 15   N/A
$$

ILZ025>027-034>036-040-047-049-050-058-095>099-230100-
WEST-CENTRAL ILLINOIS

CITY           SKY/WX    TMP DP  RH WIND       PRES   REMARKS
QUINCY         CLOUDY    84  78  82 SE3       29.99S HX  95
GALESBURG*     CLOUDY    81  75  83 SW8       30.00R HX  87
MACOMB*        CLOUDY    81  76  86 SW6       30.02R HX  87
JACKSONVILLE*  LGT RAIN  84  76  77 SW5       30.02F HX  93
PITTSFIELD*    PTSUNNY   84  76  78 E3        30.03R HX  92
$$

ILZ028>032-037-038-041>044-048-051>054-059>061-230100-
CENTRAL ILLINOIS

CITY           SKY/WX    TMP DP  RH WIND       PRES   REMARKS
PONTIAC        SUNNY     84  75  74 S9        29.96F HX  92
BLOOMINGTON    MOSUNNY   81  73  76 SW8       30.01F HX  86
DECATUR        SUNNY     84 N/A N/A SW6       30.04
PEORIA         PTSUNNY   84  74  71 SW10      29.98F HX  91
6HR MIN TEMP:  84; 6HR MAX TEMP:  91;

LACON*         PTSUNNY   83  73  71 W6        29.98R HX  89
LINCOLN*       PTSUNNY   85  74  69 S5        29.96F HX  92
SPRINGFIELD    CLOUDY    84  72  67 S7        30.00F HX  89
6HR MIN TEMP:  84; 6HR MAX TEMP:  88;

TAYLORVILLE    MOSUNNY   81  73  78 SW5       30.03S HX  85
$$

ILZ033-039-045-046-055>057-062-063-230100-
EAST-CENTRAL ILLINOIS

CITY           SKY/WX    TMP DP  RH WIND       PRES   REMARKS
CHAMPAIGN      MOSUNNY   81  72  74 S6        30.03F HX  85
RANTOUL*       SUNNY     82  71  68 S8        30.01F HX  86
MATTOON        SUNNY     84  68  58 W6        30.04R HX  87
PARIS*         SUNNY     83  72  70 SW5       30.05R HX  88
$$

ILZ079-100>102-230100-
SOUTHWEST ILLINOIS

CITY           SKY/WX    TMP DP  RH WIND       PRES   REMARKS
ALTON          PTSUNNY   84  77  79 SE7       30.01S HX  94
CAHOKIA*       PTSUNNY   89  71  55 S6        30.01S HX  95
SPARTA*        PTSUNNY   82  70  65 S5        30.04S HX  86
$$

ILZ064>066-069>071-074>076-080>082-084>086-088>090-092>094-230100-
SOUTH-CENTRAL ILLINOIS

CITY           SKY/WX    TMP DP  RH WIND       PRES   REMARKS
CARBONDALE     SUNNY     85  70  60 S7        30.03S HX  89
6HR MIN TEMP:  85; 6HR MAX TEMP:  88;

CAIRO*         SUNNY     87  74  64 W3        30.03R HX  95
MARION         SUNNY     86  72  62 SW3       30.04R HX  92
MT. VERNON     SUNNY     84  68  58 SW10      30.04R HX  87
CENTRALIA*     SUNNY     87  65  48 SW5       30.05R HX  89
SALEM*         SUNNY     86  70  58 SW5       30.05R HX  90
METROPOLIS*    SUNNY     87  65  48 SW3       30.03R HX  89
$$

ILZ067-068-072-073-078-083-087-091-230100-
SOUTHEAST ILLINOIS

CITY           SKY/WX    TMP DP  RH WIND       PRES   REMARKS
FLORA*         SUNNY     84  68  58 W6        30.04R HX  87
FAIRFIELD*     SUNNY     86  73  66 SW5       30.02S HX  93
HARRISBURG*    SUNNY     85  70  60 SW6       30.03S HX  90
ROBINSON*      SUNNY     85  74  69 W6        30.04R HX  92
CARMI*         SUNNY     87  73  64 S3        30.02R HX  94
$$

ABBREVIATIONS USED IN REMARKS
   TC - TEMPERATURE IN CELSIUS
  WCI - WIND CHILL INDEX
   HX - HEAT INDEX
  VSB - VISIBILITY
$$



USA.gov is the U.S. government's official web portal to all federal, state and local government web resources and services.